Other Public Products
Issued by NWS Grand Forks, ND

Home | Current Version | Previous Version | Graphics & Text | Print | Product List | Glossary On
Versions: 1 2 3 4 5 6 7 8 9 10 11 12 13 14 15 16 17 18 19 20 21 22 23 24 25 26 27 28 29 30 31 32 33 34 35 36 37 38 39 40 41 42 43 44 45 46 47 48 49 50
000
FPUS83 KFGF 280910
OPUFGF
PRAIRIE TO PINES WEATHER ROUNDUP
NATIONAL WEATHER SERVICE EASTERN NORTH DAKOTA/GRAND FORKS ND
400 AM CDT SUN AUG 28 2016

 **SATELLITE DATA USED TO AUGMENT SKY COVER AT AUTOMATED STATIONS**
 *****  WEATHER ACROSS EASTERN NORTH DAKOTA  *****

CITY           SKY/WX    TMP DP  RH WIND       PRES   REMARKS
GRAND FORKS    CLEAR     57  54  89 SE6       29.96S
GRAND FORKS AF CLEAR     58  56  96 S5        29.96S
GRAND CITY NWS   N/A     55 N/A N/A SE7         N/A
BUXTON           N/A     43  58 100 SE6         N/A
DEVILS LAKE    CLEAR     61  60  97 SE8       29.95S
FARGO          CLEAR     62  58  86 SE10      29.98S
WAHPETON ARPT  CLOUDY    61  55  82 SE10      30.01R
$$

 *****  WEATHER ACROSS CENTRAL AND WESTERN NORTH DAKOTA  *****

CITY           SKY/WX    TMP DP  RH WIND       PRES   REMARKS
JAMESTOWN      CLEAR     57  56  96 SE5       29.94F
BISMARCK       CLEAR     57  51  80 E8        29.90F
MINOT          CLEAR     56  50  80 E7        29.86S
MINOT AFB      CLEAR     54  49  82 SE8       29.85S
GARRISON         N/A     59  53  80 SE7       29.88S
WILLISTON      CLOUDY    65  46  50 S6        29.82R
DICKINSON      CLEAR     56  51  84 S8        29.87S
HETTINGER      CLEAR     60  52  74 SE6       29.89F
$$

 *****  OTHER OBSERVATIONS NORTHEAST NORTH DAKOTA  *****

CITY           SKY/WX    TMP DP  RH WIND       PRES   REMARKS
WALHALLA       NOT AVBL
LANGDON        FAIR      57  57 100 S9        29.96S
CAVALIER       FAIR      54  54 100 CALM      29.96S
GRAFTON        FAIR      52  52 100 E3        29.97F
CANDO          NOT AVBL
FORT TOTTEN      N/A     60  59  97 S9        29.95S
ROLLA          CLOUDY    54  54 100 S6        29.95S FOG
RUGBY          FAIR      59  57  94 SE8       29.90S
 ***** THE ABOVE OBSERVATIONS ARE NON NWS ARE NOT QUALITY
        CONTROLLED AND MAY MIS-REPORT RAIN FOR SNOW...
$$

 *****  OTHER OBSERVATIONS SOUTHEAST NORTH DAKOTA *****

CITY           SKY/WX    TMP DP  RH WIND       PRES   REMARKS
COOPERSTOWN    NOT AVBL
VALLEY CITY    FAIR      59  59 100 S8        29.99R
OAKES            N/A    N/A N/A N/A MISG        N/A
GWINNER        FAIR      61  61 100 E5        29.98R
SHEYENNE NWR     N/A     61  60  97 SE7       29.95S
BUFFALO          N/A     56  54  92 SE6         N/A
WYNDMERE       NOT AVBL
 ***** THE ABOVE OBSERVATIONS ARE NON NWS ARE NOT QUALITY
       CONTROLLED AND MAY MIS-REPORT RAIN FOR SNOW...
$$

  *****  WEATHER ACROSS NORTHERN MINNESOTA  *****

CITY           SKY/WX    TMP DP  RH WIND       PRES   REMARKS
FLAG ISLAND    MOCLDY    63  61  94 CALM      30.01S FOG
WARROAD        CLEAR     54  48  82 SE3       30.03R
ROSEAU         CLOUDY    54  48  82 CALM      30.01S
HALLOCK        CLEAR     55  54  94 SE6       29.97S
THF RVR FALLS  CLEAR     52  52 100 SE7       30.01F
HALSTAD          N/A     58  57  98 SE9         N/A
FOSSTON        CLEAR     54  52  94 SE6       30.02S
BAUDETTE       FOG       53  53 100 SE5       30.03S VSB 1/4
WASKISH          N/A     57  55  94 CALM      30.04F FOG
CROOKSTON      CLEAR     55  54  94 SE7       29.99S
$$
  *****  WEATHER ACROSS CENTRAL AND WEST MINNESOTA  *****

CITY           SKY/WX    TMP DP  RH WIND       PRES   REMARKS
BEMIDJI        FOG       55  55 100 SE5       30.05R VSB 1
PARK RAPIDS    FOG       60  58  92 S10       30.07R VSB 1
WADENA         CLOUDY    57  57 100 SE7       30.05R VSB 1
DETROIT LAKES  CLEAR     59  59 100 SE5       30.04S
MOORHEAD       CLEAR     61  57  88 SE9       30.00S
FERGUS FALLS   CLOUDY    63  63 100 S9        30.05R
ELBOW LAKE     FAIR      62  60  94 S13       30.06R
MORRIS MN      CLOUDY    63  61  94 SE7       30.06R
STAPLES        FOG       57  57 100 SE5       30.07S VSB 3/4
WHEATON        CLOUDY    64  63  94 SE10      30.04R
$$
  *****  WEATHER ELSEWHERE ACROSS MINNESOTA  *****

CITY           SKY/WX    TMP DP  RH WIND       PRES   REMARKS
DULUTH         MOCLDY    55  55 100 W3        30.10S FOG
INTRNTL FALLS  FOG       54  54 100 SW5       30.06S VSB 1
ELY            MOCLDY    54  52  94 SW3       30.10R
CLOQUET        CLOUDY    61  57  88 CALM      30.10S
BRAINERD       CLOUDY    59  58  96 S8        30.09R FOG
HIBBING        FOG       52  52 100 CALM      30.09F VSB 1/2
ALEXANDRIA     CLOUDY    59  59 100 SE8       30.08R FOG
SAINT CLOUD    FOG       60  60 100 SE5       30.09R VSB 1/4
MINNEAPOLIS    CLEAR     62  60  93 SE6       30.10R
$$

  *****  WEATHER ACROSS SOUTH DAKOTA  *****

CITY           SKY/WX    TMP DP  RH WIND       PRES   REMARKS
SIOUX FALLS    CLEAR     68  65  90 SE7       30.02S
BROOKINGS      CLEAR     64  62  93 SE10      30.03R
WATERTOWN      CLOUDY    68  63  84 SE9G18    30.02R
HURON          CLEAR     67  64  90 S12       29.94S
SISSETON         N/A     63  60  90 S12       29.99F
ABERDEEN       CLEAR     67  63  87 SE9       29.95R
MITCHELL       CLEAR     67  64  90 S9        29.97S
PIERRE         PTCLDY    69  61  75 S9        29.89F
MOBRIDGE       CLEAR     67  61  81 SE9       29.88S
RAPID CITY     CLEAR     59  52  77 SE9       29.92S
$$

  *****  SOME WEATHER IN NEARBY STATES *****

CITY           SKY/WX    TMP DP  RH WIND       PRES   REMARKS
GLASGOW MT     CLOUDY    63  45  51 SE6       29.77R
GREAT FALLS MT CLOUDY    71  37  28 SW15      29.84R
CHEYENNE WY    CLEAR     53  37  54 W9        30.18R
SCOTTSBLUFF NE CLEAR     61  54  77 E5        30.05R
OMAHA NE       PTCLDY    70  65  84 S5        30.06S
DES MOINES IA  CLOUDY    69  68  96 E5        30.09S
DAVENPORT IA   CLEAR     67  65  93 NE5       30.12S FOG
CHICAGO IL     CLOUDY    73  69  87 NW3       30.13R
EAU CLAIRE WI  CLOUDY    62  62 100 NE3       30.12R FOG
LA CROSSE WI   FOG       67  67 100 S7        30.11R VSB 1
$$

  *****  SOME NATIONAL WEATHER *****

CITY           SKY/WX    TMP DP  RH WIND       PRES   REMARKS
LA GUARDIA NY  PTCLDY    75  69  81 S5        30.22R
RALEIGH NC     PTCLDY    72  70  93 NE7       30.16S
ATLANTA GA     CLEAR     75  72  90 E9        30.12R
NEW ORLEANS LA PTCLDY    81  76  84 NE5       29.95S
OKLAHOMA CITY  CLEAR     71  69  93 CALM      30.05R
ALBUQUERQUE NM CLOUDY    60  51  72 CALM      30.22R
SALT LAKE CITY PTCLDY    70  31  23 S9        30.07R
LOS ANGELES CA CLEAR     65  60  84 W5        29.99F
BOISE ID       CLEAR     66  32  28 S6        29.93R
SEATTLE WA     CLOUDY    58  51  78 S7        30.04R
$$

*** WEATHER ACROSS MANITOBA...SASKATCHEWAN AND ONTARIO ***
                ***ONTARIO***

CITY           SKY/WX    TMP DP  RH WIND       PRES   REMARKS
GERALDTON      MOCLDY    55  54  94 W2        30.07S
THUNDER BAY    FOG       54  54 100 W3        30.07R VSB 1/4
SIOUX LOOKOUT  MOCLDY    57  55  94 W5        30.05R
TORONTO        PTCLDY    72  63  73 E5        30.10F
BIG TROUT LK   MOCLDY    59  55  88 W3        29.99R
PICKLE LAKE    NOT AVBL
DRYDEN         CLOUDY    55  55 100 SW5       30.05R
KENORA         NOT AVBL
$$
                *** MANITOBA***

CITY           SKY/WX    TMP DP  RH WIND       PRES   REMARKS
BRANDON        PTCLDY    48  46  93 E8        29.90S
DAUPHIN        CLEAR     50  46  87 VRB2      29.86S
ISLAND LAKE    NOT AVBL
PILOT MOUND      N/A     55  54  94 SE8         N/A
THE PAS        PTCLDY    59  57  94 SE10      29.81S
THOMPSON       PTCLDY    55  54  94 E5        29.88R
WINNIPEG       PTCLDY    55  54  94 SE6       29.96R
LYNN LAKE      CLOUDY    57  54  88 MISG      29.83S
CHURCHILL      PTCLDY    48  48 100 SE8       29.96S
GILLAM         CLEAR     54  54 100 E6        29.93R
$$
                ***SASKATCHEWAN***

CITY           SKY/WX    TMP DP  RH WIND       PRES   REMARKS
ESTEVAN        CLEAR     54  46  76 SE7       29.80S
KINDERSLEY     CLEAR     55  54  94 W10       29.70R
LLOYDMINSTER   CLOUDY    54  52  94 W13       29.68R
PRINCE ALBERT  CLOUDY    61  55  82 E13       29.59F
REGINA         CLOUDY    63  48  59 SE16      29.73S
YORKTON        MOCLDY    59  48  67 SE13G21   29.79S   C1F1C2F2C3F3C4F4C5F5C6F6C7F7C8F8C9F9CaFaCbFbCcFcCdFdCe!



USA.gov is the U.S. government's official web portal to all federal, state and local government web resources and services.